Location: Antichan
(42.9728°N, 0.6667°E)
Time: 18:55:44
(UTC+00:00)

H-2A R/B - Pass Details

Date: 15 August 2020
Orbit: 575 x 597 km, 98.2° (Epoch: 20 September)

Event Time Altitude Azimuth Distance (km) Brightness Sun altitude
Rises 21:05:42 0° 9° (N) 2,811 7.4 -20.5°
Reaches altitude 10° 21:07:53 10° 5° (N) 1,910 6.6 -20.8°
Maximum altitude 21:11:57 59° 287° (WNW) 682 4.0 -21.3°
Enters shadow 21:14:35 21° 213° (SSW) 1,343 5.1 -21.6°
